Temperature
10 11 11 11 11 12 13 13 13 12 11 12 13 13 13 12 11 11 11 11 10 10 10 10 11 11 11 11 11 11 11 10 10 10 10 10 10 10 10 10 10 10 10 10
12 11 10 10 10 11 12 13 12 12 11 12 12 13 13 12 11 11 11 11 11 10 10 10 10 10 10 10 10 10 10 10 10 10 10 10 10 10 10 9 9 9 9 9
11 10 9 10 11 11 12 12 12 12 11 12 12 14 13 12 11 10 10 10 10 10 10 10 10 10 10 10 10 10 10 10 10 10 10 9 9 9 9 9 9 9 9 9
10 9 9 10 10 11 12 10 11 11 13 13 13 14 14 13 12 12 11 10 10 10 10 10 10 10 10 10 10 10 10 10 10 9 9 9 9 9 9 9 9 9 9 9
9 9 10 10 9 10 10 9 10 11 12 13 13 13 15 12 13 13 11 10 10 9 9 10 10 10 10 10 10 10 10 10 9 9 9 9 9 9 9 9 9 9 8 8
9 8 8 9 8 9 9 10 11 11 13 12 12 13 14 14 13 13 12 10 9 9 9 9 10 10 10 10 10 10 10 9 9 9 9 9 9 9 8 8 8 8 8 8
10 9 8 8 9 10 10 12 12 12 12 13 11 12 14 13 12 12 11 10 9 9 9 9 9 9 9 9 10 9 9 9 9 9 9 9 8 8 8 8 8 8 8 8
10 10 9 8 9 10 10 11 12 13 14 14 11 12 14 11 10 9 9 9 8 8 8 9 9 9 9 9 9 9 9 9 9 9 8 8 8 8 8 8 7 7 7 7
11 10 8 8 8 9 10 11 10 12 11 12 14 13 13 11 10 10 9 9 8 8 8 9 9 9 9 9 9 9 9 9 9 8 8 8 8 8 7 7 7 7 7 7
10 9 9 8 8 8 9 10 10 11 12 13 14 14 14 12 11 10 10 9 8 8 8 8 9 9 9 9 9 8 8 8 8 8 8 8 7 7 7 7 7 7 6 6
9 9 9 9 9 10 9 9 10 11 11 13 14 15 13 12 11 11 10 9 9 8 8 8 8 8 8 8 8 8 8 8 8 8 8 7 7 7 7 6 6 6 6 6
8 9 9 9 8 7 9 9 10 11 11 11 12 14 11 10 10 10 10 9 8 8 8 8 8 8 8 8 8 8 8 8 7 7 7 7 7 6 6 6 6 6 6 6
8 9 10 10 9 7 8 8 8 9 10 10 12 14 10 9 9 9 9 8 8 8 8 8 8 8 8 8 8 7 7 7 7 7 7 6 6 6 6 6 6 6 6 5
8 9 10 12 11 9 8 8 8 8 9 11 11 13 12 11 10 9 9 8 8 7 8 7 7 7 7 7 7 7 7 7 6 6 6 6 6 6 6 5 5 5 5 5
8 9 8 8 8 7 8 8 8 8 10 11 12 11 12 12 11 10 9 8 7 7 7 7 7 7 7 7 7 7 6 6 6 6 5 5 5 5 5 5 5 5 5 5
7 8 7 7 7 7 7 8 8 8 8 9 10 10 11 10 9 8 8 7 7 7 7 7 7 7 7 7 7 6 6 6 6 5 5 5 5 5 5 5 4 4 4 4
7 7 7 8 7 7 9 9 8 8 8 9 9 11 10 9 8 8 7 7 7 7 7 7 7 7 7 6 6 6 6 5 5 5 5 4 4 4 4 4 4 4 4 4
7 7 7 7 7 8 11 8 8 8 8 8 8 9 9 8 7 7 7 7 7 7 7 7 7 7 6 6 6 5 5 5 5 4 4 4 4 4 4 4 3 3 3 3
6 7 7 7 8 9 10 8 7 7 9 8 8 8 7 6 6 7 7 7 7 7 7 7 7 6 6 6 5 5 5 4 4 4 4 4 3 3 3 3 3 3 3 3
4 6 7 7 7 9 11 8 6 7 9 8 7 7 6 6 8 9 7 7 7 7 7 6 6 6 5 5 5 4 4 4 4 4 3 3 3 3 3 3 2 2 2 2
4 4 5 6 7 9 9 6 6 9 11 8 6 6 6 6 8 7 7 7 6 6 6 6 6 5 5 4 4 4 4 4 3 3 3 3 2 2 2 2 2 2 2 2
6 5 5 6 6 8 7 6 8 10 7 7 6 6 6 6 6 6 6 6 6 6 5 5 5 5 4 4 4 4 3 3 3 3 3 2 2 2 2 2 2 1 1 1
6 7 7 7 9 8 6 7 7 7 7 7 7 7 6 6 6 6 6 5 5 5 5 5 4 4 4 4 3 3 3 3 3 2 2 2 2 2 1 1 1 1 1 0
5 4 5 5 6 6 5 6 6 6 6 7 6 6 6 6 5 5 5 5 5 4 4 4 4 4 3 3 3 3 2 2 2 2 2 1 1 1 1 1 1 0 0 -0
6 4 4 5 6 5 5 6 7 6 6 6 6 6 5 5 5 5 4 4 4 4 4 3 3 3 3 3 2 2 2 2 2 1 1 1 1 1 1 0 0 -0 -0 -1
4 4 5 7 7 6 7 6 6 6 6 6 5 5 5 5 4 4 4 4 4 3 3 3 3 2 2 2 2 2 1 1 1 1 1 1 0 0 0 -0 -0 -0 -0 -1
Wind_Speed
1 2 2 2 2 2 5 5 3 1 2 1 3 3 3 3 4 5 5 5 5 5 4 4 5 5 5 5 5 5 5 5 4 3 2 1 1 0 1 1 1 1 1 1
3 2 1 1 0 1 3 4 1 1 3 1 1 3 3 3 5 5 6 6 6 5 4 4 5 5 6 6 5 5 5 4 4 3 2 1 1 0 1 0 0 1 1 1
3 1 1 2 2 2 0 3 2 1 2 1 1 3 3 2 3 3 4 5 5 5 5 5 5 6 6 5 5 5 5 5 4 4 3 2 2 1 1 1 1 1 2 1
3 2 0 2 1 1 0 1 1 1 2 1 1 3 4 4 4 4 4 5 5 5 5 5 6 6 6 5 5 5 5 5 4 4 4 4 3 2 2 2 2 2 2 2
2 2 1 1 1 2 0 1 0 1 1 1 1 3 3 3 4 5 4 4 4 4 5 5 6 5 5 4 4 4 5 4 4 4 5 4 4 3 2 2 3 3 2 2
2 1 2 1 2 0 1 1 1 1 1 3 2 4 3 3 4 4 4 4 4 4 4 4 5 5 4 4 4 5 5 5 4 5 5 5 5 4 4 4 3 3 2 2
2 1 2 1 1 1 1 1 0 1 2 3 0 4 5 1 2 3 3 4 4 5 5 5 6 6 5 5 5 5 5 4 4 4 4 4 5 5 5 5 4 4 3 3
1 1 1 2 1 1 1 2 1 2 3 2 1 5 2 1 1 2 2 3 4 5 5 6 6 6 5 5 4 4 4 3 3 3 3 3 4 4 3 4 4 4 4 3
1 1 1 1 1 1 1 1 2 0 1 3 4 4 4 1 1 2 3 5 5 6 6 6 6 5 5 4 3 3 3 3 2 2 2 2 3 4 4 4 4 4 4 3
0 1 1 1 1 2 2 1 2 2 2 3 4 4 3 3 4 5 5 6 6 6 6 6 5 5 4 3 3 3 2 1 1 1 1 2 2 3 3 3 4 4 4 4
1 1 1 1 3 2 2 2 2 1 2 3 4 2 0 3 4 6 6 6 6 7 6 5 5 4 4 3 3 2 2 1 0 0 1 2 2 3 3 3 4 4 4 4
1 1 2 2 0 2 2 3 4 3 3 3 4 4 2 2 3 4 5 5 6 6 6 5 5 5 4 3 2 2 1 0 1 1 2 2 2 3 3 4 4 4 4 4
3 2 1 2 3 3 4 4 4 2 1 4 5 4 2 1 3 4 5 5 6 6 6 5 5 5 4 3 2 1 1 1 1 1 2 2 2 3 3 3 4 4 4 4
2 3 5 5 2 2 5 6 7 6 5 6 9 10 6 5 5 5 5 6 6 6 6 6 5 5 4 3 2 2 2 1 1 2 2 2 2 3 3 3 3 4 4 4
3 4 4 6 6 5 8 10 11 13 12 10 10 11 12 9 8 7 6 6 6 7 6 6 5 5 4 3 3 3 3 2 2 2 3 3 3 3 3 3 4 4 4 5
2 3 2 4 4 6 9 14 15 15 14 16 16 15 11 8 6 6 7 7 8 8 7 7 6 5 4 4 4 3 3 2 2 3 3 3 3 3 3 4 4 4 5 5
4 4 3 4 3 6 10 11 14 9 11 11 13 10 5 4 6 7 7 7 8 8 7 6 6 5 5 4 4 4 3 3 3 3 4 4 4 4 4 4 4 5 5 5
5 4 3 3 3 8 3 1 6 10 10 12 12 9 6 6 5 5 6 7 7 6 6 5 5 5 4 3 3 3 3 3 4 4 4 4 4 4 4 5 5 6 6 6
6 6 4 3 5 9 6 3 5 6 6 8 12 10 6 3 3 3 3 4 6 5 5 4 4 4 3 3 3 3 3 3 4 5 5 4 4 5 5 6 6 6 6 6
3 5 5 5 6 7 2 3 3 3 5 3 6 6 4 4 4 2 1 2 3 3 2 2 2 3 3 3 3 3 4 4 5 5 5 5 5 5 6 7 7 6 6 7
5 6 9 10 9 9 3 4 6 4 2 2 4 5 6 6 4 1 1 2 2 2 2 2 2 3 3 3 3 4 5 5 5 5 5 5 6 6 7 7 6 6 6 7
9 9 9 8 9 9 5 8 7 3 1 2 3 5 6 6 4 4 4 3 3 3 2 3 3 3 3 3 4 5 6 5 4 4 5 6 6 6 6 7 7 7 7 8
9 9 6 9 8 2 6 6 4 3 4 4 4 5 6 6 6 6 5 5 4 4 4 4 4 4 4 4 5 6 6 5 4 5 6 6 6 6 6 7 7 7 7 7
7 5 6 9 11 10 9 9 8 7 8 7 6 6 6 7 7 7 6 6 6 5 5 4 5 5 5 5 6 7 6 5 5 6 7 6 6 7 7 6 6 7 7 8
7 7 7 11 11 10 10 10 10 9 9 8 8 7 8 8 9 8 8 7 6 6 5 5 6 6 6 6 6 6 6 5 6 7 7 7 7 7 7 7 7 8 9 9
9 11 11 12 10 9 9 6 7 8 9 9 9 8 8 8 9 9 8 7 6 6 5 5 6 7 7 6 7 6 6 6 7 7 7 6 6 6 7 7 8 10 12 14
Wind_Direction
74 119 139 184 238 262 207 201 211 267 343 227 215 250 261 210 201 203 201 197 196 199 188 175 172 174 170 164 161 159 157 159 162 165 177 175 174 173 144 74 19 6 359 3
129 99 15 302 165 180 187 192 205 354 8 316 234 271 262 227 216 213 207 205 201 189 173 171 169 171 177 174 173 168 169 171 177 174 169 161 133 31 299 226 349 313 303 305
126 45 345 159 126 119 145 213 224 302 337 35 281 247 218 217 212 215 218 215 211 202 193 180 177 182 185 185 184 179 179 182 183 175 163 159 168 197 239 243 254 265 272 269
70 8 159 146 90 300 276 351 242 262 211 212 283 244 214 207 214 207 212 213 214 204 197 186 181 182 187 190 186 184 182 185 187 187 193 198 209 220 245 260 266 272 269 267
72 25 41 118 351 317 85 356 252 234 208 234 230 237 237 196 228 223 212 210 211 199 189 181 181 181 181 178 179 181 178 183 189 193 202 207 221 234 248 258 262 269 261 257
80 41 3 359 358 12 159 173 141 187 213 240 237 235 244 203 225 212 200 199 189 176 170 163 160 161 159 162 169 171 174 180 186 194 206 215 223 231 239 253 260 262 259 255
60 70 33 336 73 110 286 194 99 201 233 250 118 246 252 220 238 223 201 187 175 164 160 155 154 155 155 163 166 166 173 179 186 196 210 221 228 235 239 250 258 261 258 255
156 185 26 359 322 244 229 279 246 244 252 276 227 248 269 52 298 251 214 177 163 161 158 153 152 150 151 158 161 163 172 178 183 199 219 227 227 233 242 247 254 259 258 261
199 196 49 359 340 277 179 187 338 292 290 269 251 271 275 185 216 186 174 167 166 162 159 154 149 145 145 148 149 157 166 171 178 194 214 221 221 228 237 244 250 256 256 258
181 217 275 318 194 66 343 160 184 207 246 267 272 262 265 220 203 189 185 179 172 165 160 156 151 146 141 137 135 134 139 156 173 197 224 227 226 235 242 246 251 257 256 253
202 183 208 208 216 218 172 185 205 196 269 264 276 264 353 243 215 202 196 189 181 174 171 166 159 152 144 137 133 129 125 134 157 242 260 228 234 237 242 246 255 258 257 255
171 197 228 227 146 322 249 226 206 236 235 239 269 277 91 261 250 223 206 195 191 184 180 175 167 160 153 151 152 155 158 200 278 288 281 259 244 242 247 256 264 265 266 268
179 204 246 196 190 199 227 214 211 225 225 219 238 261 98 283 247 222 212 202 193 187 181 177 174 175 176 179 185 196 214 261 294 288 277 272 257 252 257 267 273 274 275 277
194 230 239 257 295 198 228 223 209 204 220 236 239 261 265 263 249 232 218 209 198 194 190 188 189 193 194 200 210 223 243 263 276 272 270 273 275 274 276 281 278 278 277 276
214 247 249 266 273 258 251 244 223 221 232 244 257 258 267 270 261 247 233 216 205 202 200 202 207 209 210 215 226 236 248 257 260 264 269 277 284 284 282 281 281 281 279 277
212 240 251 268 257 260 264 252 239 235 240 247 262 269 272 276 263 246 231 220 216 215 212 213 217 223 224 229 235 241 250 258 255 258 267 276 277 279 280 283 285 283 282 281
195 203 226 263 292 291 264 244 222 218 220 227 241 254 262 255 250 244 234 224 224 223 219 220 224 228 232 235 237 243 252 254 254 261 270 273 276 280 286 290 286 283 283 283
197 194 224 271 280 250 260 110 211 225 240 230 246 262 267 268 276 265 242 232 230 226 224 227 231 235 236 234 235 240 244 245 252 259 266 271 275 280 286 285 282 281 280 278
217 204 213 228 259 274 273 217 191 212 257 232 237 251 260 269 264 249 235 240 238 235 235 240 236 229 224 224 225 229 239 246 253 260 267 272 274 277 279 279 280 282 281 279
187 218 224 221 242 254 263 142 163 197 259 209 213 231 219 193 232 239 175 235 239 236 236 238 227 219 221 219 216 229 243 250 257 265 271 273 270 269 272 275 280 281 279 279
174 196 217 227 242 263 255 147 157 219 295 141 199 213 197 209 245 314 248 236 223 221 222 215 213 222 230 222 220 237 248 255 264 269 271 272 270 270 273 276 275 276 277 278
189 189 202 206 227 252 165 158 199 254 11 201 216 213 211 228 251 249 242 239 233 229 226 221 223 235 237 227 228 244 253 263 269 268 269 271 273 273 272 273 276 276 275 277
214 211 209 210 229 290 180 213 244 266 251 247 239 232 224 237 249 249 244 240 240 238 235 230 232 243 245 235 235 250 262 267 266 267 269 273 276 274 271 271 274 277 274 273
226 220 229 248 258 260 254 253 259 255 256 259 254 247 234 243 250 249 248 247 243 239 234 232 237 247 253 248 249 256 266 263 260 265 271 274 274 276 275 271 268 268 270 273
233 195 226 252 266 277 260 247 251 253 252 254 254 250 246 249 253 251 252 252 249 243 238 236 241 250 258 258 258 261 260 256 258 264 268 270 269 272 275 273 268 267 268 268
223 219 230 252 254 251 265 264 252 248 251 251 251 254 250 243 249 251 253 253 249 244 240 240 246 252 261 263 264 264 257 252 254 261 265 267 269 272 274 278 282 263 260 272
Height
1513 1512 1512 1512 1512 1510 1507 1506 1505 1508 1511 1509 1506 1505 1505 1507 1508 1508 1508 1509 1510 1511 1513 1513 1515 1516 1518 1519 1521 1523 1525 1527 1528 1529 1529 1529 1530 1530 1530 1530 1530 1530 1530 1529
1512 1513 1516 1515 1514 1511 1509 1507 1508 1510 1511 1510 1507 1505 1504 1505 1506 1506 1507 1508 1509 1510 1511 1512 1513 1514 1516 1518 1520 1522 1524 1525 1527 1527 1528 1528 1529 1529 1529 1528 1528 1528 1528 1527
1511 1517 1517 1515 1513 1511 1510 1508 1508 1510 1511 1510 1508 1502 1502 1503 1505 1506 1506 1507 1508 1508 1509 1510 1511 1513 1515 1517 1518 1520 1522 1524 1525 1525 1526 1527 1527 1527 1527 1526 1526 1526 1526 1525
1516 1518 1517 1514 1514 1512 1510 1513 1513 1512 1507 1506 1508 1502 1497 1500 1502 1503 1505 1505 1506 1506 1507 1508 1510 1512 1513 1515 1517 1519 1520 1522 1522 1523 1524 1525 1525 1525 1525 1524 1524 1524 1524 1523
1517 1519 1517 1516 1517 1515 1514 1516 1514 1512 1509 1508 1507 1505 1494 1499 1498 1499 1502 1503 1504 1504 1506 1507 1508 1510 1512 1513 1515 1517 1518 1519 1520 1521 1522 1523 1523 1523 1523 1523 1522 1522 1521 1521
1519 1521 1521 1519 1519 1519 1518 1515 1513 1511 1507 1509 1507 1504 1494 1493 1494 1496 1500 1501 1502 1503 1504 1505 1507 1508 1510 1512 1514 1515 1516 1517 1518 1519 1520 1520 1520 1520 1520 1520 1519 1519 1518 1518
1517 1520 1521 1521 1518 1518 1517 1512 1510 1509 1508 1502 1511 1507 1495 1494 1497 1497 1499 1500 1501 1502 1503 1504 1506 1508 1509 1511 1512 1513 1514 1515 1516 1517 1517 1517 1517 1517 1517 1517 1516 1516 1515 1515
1516 1518 1521 1521 1519 1516 1516 1513 1511 1509 1503 1499 1510 1502 1491 1497 1498 1499 1499 1499 1500 1501 1502 1504 1505 1507 1508 1510 1511 1511 1512 1513 1513 1514 1513 1513 1514 1513 1513 1513 1513 1512 1512 1511
1513 1516 1522 1522 1522 1520 1515 1514 1516 1511 1511 1506 1495 1495 1491 1495 1496 1497 1498 1499 1499 1501 1502 1503 1504 1506 1507 1508 1509 1510 1510 1510 1511 1511 1511 1510 1510 1510 1510 1510 1509 1509 1508 1507
1516 1518 1521 1522 1522 1522 1520 1517 1516 1512 1509 1500 1493 1491 1486 1489 1492 1495 1496 1498 1499 1500 1501 1502 1503 1505 1506 1507 1507 1508 1508 1508 1508 1508 1508 1507 1507 1507 1507 1506 1506 1505 1504 1504
1518 1517 1520 1520 1519 1516 1520 1519 1515 1512 1510 1503 1495 1487 1487 1488 1490 1492 1494 1496 1497 1499 1500 1501 1502 1503 1504 1505 1506 1506 1506 1506 1506 1505 1505 1504 1504 1504 1503 1503 1502 1502 1501 1500
1519 1516 1516 1517 1521 1522 1519 1515 1513 1510 1511 1510 1501 1492 1490 1491 1492 1492 1493 1495 1496 1497 1498 1499 1500 1502 1503 1503 1504 1504 1504 1504 1503 1503 1502 1501 1501 1500 1500 1499 1498 1498 1497 1496
1519 1516 1512 1511 1519 1522 1518 1516 1516 1514 1511 1509 1501 1490 1491 1492 1492 1492 1493 1493 1494 1495 1496 1497 1499 1500 1500 1501 1501 1501 1501 1501 1500 1500 1499 1498 1497 1497 1496 1496 1495 1494 1493 1492
1518 1514 1511 1505 1503 1509 1512 1513 1515 1513 1509 1501 1496 1487 1487 1488 1490 1491 1491 1492 1493 1493 1494 1495 1496 1497 1498 1499 1499 1499 1499 1498 1498 1497 1496 1495 1494 1494 1493 1492 1491 1490 1489 1488
1517 1513 1513 1511 1512 1512 1509 1508 1510 1509 1500 1496 1487 1488 1483 1485 1487 1488 1489 1490 1491 1491 1492 1493 1494 1495 1496 1496 1496 1496 1496 1495 1494 1494 1493 1492 1491 1490 1489 1488 1487 1486 1485 1484
1516 1513 1514 1512 1512 1512 1509 1503 1502 1502 1500 1495 1491 1487 1483 1485 1486 1486 1487 1487 1488 1489 1490 1491 1491 1492 1493 1493 1493 1493 1493 1492 1491 1491 1490 1489 1488 1487 1486 1485 1483 1482 1481 1479
1514 1513 1512 1505 1510 1508 1496 1488 1491 1492 1490 1489 1486 1481 1482 1483 1484 1484 1484 1484 1485 1486 1487 1488 1488 1489 1489 1490 1490 1490 1489 1489 1488 1488 1487 1486 1485 1483 1482 1481 1479 1478 1476 1475
1512 1511 1510 1508 1507 1501 1481 1487 1486 1487 1485 1485 1483 1481 1482 1482 1482 1482 1482 1482 1482 1483 1484 1485 1485 1486 1486 1487 1487 1487 1486 1486 1485 1484 1483 1482 1481 1479 1478 1477 1475 1474 1472 1470
1511 1509 1508 1508 1499 1486 1481 1484 1486 1485 1480 1479 1480 1479 1481 1481 1481 1480 1479 1479 1480 1481 1482 1482 1482 1483 1483 1483 1483 1483 1483 1482 1481 1480 1479 1478 1477 1475 1474 1472 1471 1469 1467 1465
1512 1510 1507 1504 1500 1486 1475 1482 1483 1485 1476 1475 1476 1477 1479 1480 1478 1476 1477 1477 1478 1479 1479 1479 1480 1480 1480 1480 1480 1480 1479 1478 1478 1477 1475 1474 1473 1471 1470 1468 1466 1464 1462 1460
1508 1508 1505 1500 1495 1479 1477 1481 1484 1480 1471 1474 1474 1475 1476 1477 1476 1476 1476 1476 1476 1476 1477 1477 1477 1477 1477 1477 1477 1476 1475 1475 1474 1472 1471 1470 1468 1467 1465 1463 1461 1460 1457 1455
1493 1496 1497 1495 1492 1480 1476 1479 1477 1472 1472 1472 1472 1473 1474 1474 1474 1473 1473 1474 1474 1474 1474 1474 1474 1474 1473 1473 1473 1472 1471 1470 1469 1468 1467 1465 1464 1462 1461 1459 1456 1454 1452 1449
1487 1483 1481 1481 1475 1472 1473 1472 1471 1471 1471 1470 1471 1471 1471 1471 1471 1471 1471 1471 1471 1471 1471 1471 1470 1470 1469 1469 1468 1468 1467 1466 1465 1463 1462 1461 1459 1458 1456 1454 1451 1449 1446 1443
1482 1483 1481 1478 1470 1470 1470 1469 1468 1468 1468 1468 1468 1468 1468 1468 1467 1467 1467 1467 1467 1467 1467 1467 1466 1466 1465 1465 1464 1464 1463 1461 1460 1459 1457 1456 1454 1452 1450 1448 1446 1443 1440 1437
1474 1478 1476 1472 1467 1467 1464 1464 1464 1464 1464 1464 1464 1464 1464 1464 1463 1463 1463 1463 1463 1462 1462 1462 1462 1461 1461 1460 1460 1459 1458 1457 1455 1454 1452 1451 1449 1447 1444 1442 1440 1437 1435 1432
1469 1469 1468 1462 1461 1462 1460 1460 1460 1460 1460 1460 1460 1459 1459 1459 1459 1458 1458 1458 1458 1457 1457 1457 1456 1456 1456 1455 1455 1454 1453 1451 1450 1448 1447 1445 1443 1441 1438 1436 1433 1430 1428 1425